When you browse on this site, cookies collect data to enhance your experience and personalize the content and advertising you see.
Visit our Privacy Policy to learn more. By continuing to use the site, you agree to this use of cookies and data.
  • In Spain
  • List of Countries
  • For 7 days
  • Water Temperature
  • Weather Map
  • Weather Widgets
  • user-avatar
    Login

    Hourly Weather Lusaka

    Today, 16 December, Monday

    Time Temperature Precipitation Wind Pressure Humidity
    00:00 +21°C° 0 mm 2 mps 656 mmHg 86%
    01:00 +20°C° 0 mm 2 mps 655 mmHg 88%
    02:00 +20°C° 0 mm 2 mps 655 mmHg 92%
    03:00 +19°C° 0 mm 2 mps 655 mmHg 92%
    04:00 +20°C° 0 mm 1 mps 655 mmHg 92%
    05:00 +18°C° 0 mm 0 mps 655 mmHg 92%
    06:00 +20°C° 0 mm 0 mps 656 mmHg 85%
    07:00 +21°C° 0 mm 0 mps 657 mmHg 78%
    08:00 +23°C° 0 mm 0 mps 658 mmHg 71%
    09:00 +25°C° 0 mm 0 mps 658 mmHg 63%
    10:00 +29°C° 0 mm 1 mps 658 mmHg 55%
    11:00 +31°C° 0 mm 1 mps 658 mmHg 47%
    12:00 +31°C° 0 mm 1 mps 658 mmHg 48%
    13:00 +30°C° 0 mm 2 mps 657 mmHg 49%
    14:00 +30°C° 0 mm 2 mps 656 mmHg 51%
    15:00 +29°C° 0.1 mm 2 mps 656 mmHg 52%
    16:00 +29°C° 0.1 mm 2 mps 656 mmHg 53%
    17:00 +28°C° 0.1 mm 2 mps 656 mmHg 55%
    18:00 +26°C° 0 mm 2 mps 656 mmHg 60%
    19:00 +25°C° 0 mm 2 mps 656 mmHg 65%
    20:00 +23°C° 0 mm 2 mps 656 mmHg 70%
    21:00 +23°C° 0 mm 1 mps 656 mmHg 72%
    22:00 +22°C° 0 mm 1 mps 656 mmHg 73%
    23:00 +22°C° 0 mm 1 mps 656 mmHg 75%

    Tomorrow, 17 December, Tuesday

    Time Temperature Precipitation Wind Pressure Humidity
    00:00 +21°C° 0 mm 1 mps 656 mmHg 75%
    01:00 +20°C° 0 mm 2 mps 656 mmHg 74%
    02:00 +20°C° 0 mm 2 mps 656 mmHg 74%
    03:00 +19°C° 0 mm 3 mps 656 mmHg 78%
    04:00 +19°C° 0 mm 3 mps 656 mmHg 83%
    05:00 +19°C° 0 mm 3 mps 656 mmHg 87%
    06:00 +20°C° 0 mm 4 mps 657 mmHg 84%
    07:00 +20°C° 0 mm 4 mps 658 mmHg 82%
    08:00 +21°C° 0 mm 5 mps 658 mmHg 79%
    09:00 +22°C° 0 mm 5 mps 658 mmHg 75%
    10:00 +23°C° 0 mm 4 mps 658 mmHg 70%
    11:00 +25°C° 0 mm 4 mps 658 mmHg 66%
    12:00 +26°C° 0 mm 4 mps 658 mmHg 63%
    13:00 +27°C° 0 mm 3 mps 657 mmHg 60%
    14:00 +28°C° 0 mm 3 mps 657 mmHg 57%
    15:00 +27°C° 0 mm 3 mps 656 mmHg 58%
    16:00 +27°C° 0 mm 3 mps 656 mmHg 60%
    17:00 +27°C° 0 mm 3 mps 655 mmHg 62%
    18:00 +25°C° 0 mm 3 mps 655 mmHg 68%
    19:00 +23°C° 0 mm 2 mps 655 mmHg 75%
    20:00 +21°C° 0 mm 2 mps 655 mmHg 82%
    21:00 +21°C° 0 mm 2 mps 655 mmHg 83%
    22:00 +21°C° 0 mm 1 mps 656 mmHg 84%
    23:00 +21°C° 0 mm 1 mps 656 mmHg 85%

    Day after tomorrow, 18 December, Wednesday

    Time Temperature Precipitation Wind Pressure Humidity
    00:00 +20°C° 0 mm 2 mps 656 mmHg 85%
    01:00 +19°C° 0 mm 2 mps 655 mmHg 86%
    02:00 +19°C° 0 mm 2 mps 655 mmHg 87%
    03:00 +19°C° 0 mm 2 mps 655 mmHg 88%
    04:00 +18°C° 0 mm 2 mps 655 mmHg 89%
    05:00 +18°C° 0 mm 2 mps 655 mmHg 91%
    06:00 +19°C° 0 mm 2 mps 656 mmHg 84%
    07:00 +21°C° 0 mm 3 mps 657 mmHg 78%
    08:00 +22°C° 0 mm 3 mps 657 mmHg 71%
    09:00 +25°C° 0 mm 3 mps 658 mmHg 63%
    10:00 +27°C° 0 mm 3 mps 658 mmHg 55%
    11:00 +29°C° 0 mm 3 mps 658 mmHg 47%
    12:00 +30°C° 0 mm 3 mps 658 mmHg 44%
    13:00 +30°C° 0 mm 3 mps 657 mmHg 40%
    14:00 +31°C° 0 mm 3 mps 656 mmHg 37%
    15:00 +30°C° 0 mm 3 mps 656 mmHg 40%
    16:00 +30°C° 0 mm 3 mps 655 mmHg 42%
    17:00 +29°C° 0 mm 3 mps 655 mmHg 44%
    18:00 +27°C° 0 mm 2 mps 655 mmHg 50%
    19:00 +25°C° 0 mm 2 mps 654 mmHg 56%
    20:00 +23°C° 0 mm 2 mps 654 mmHg 61%
    21:00 +21°C° 0 mm 2 mps 654 mmHg 63%
    22:00 +21°C° 0 mm 2 mps 655 mmHg 65%
    23:00 +22°C° 0 mm 1 mps 655 mmHg 67%

    19 December, Thursday

    Time Temperature Precipitation Wind Pressure Humidity
    00:00 +21°C° 0 mm 1 mps 654 mmHg 70%
    01:00 +21°C° 0 mm 1 mps 654 mmHg 73%
    02:00 +20°C° 0 mm 1 mps 654 mmHg 76%
    03:00 +20°C° 0 mm 1 mps 654 mmHg 77%
    04:00 +20°C° 0 mm 1 mps 654 mmHg 78%
    05:00 +19°C° 0 mm 1 mps 654 mmHg 79%
    06:00 +21°C° 0 mm 1 mps 655 mmHg 72%
    07:00 +24°C° 0 mm 1 mps 656 mmHg 66%
    08:00 +26°C° 0 mm 1 mps 657 mmHg 59%
    09:00 +28°C° 0 mm 1 mps 657 mmHg 52%
    10:00 +30°C° 0 mm 2 mps 658 mmHg 44%
    11:00 +32°C° 0 mm 2 mps 658 mmHg 37%
    12:00 +32°C° 0 mm 2 mps 657 mmHg 35%
    13:00 +34°C° 0 mm 2 mps 656 mmHg 32%
    14:00 +35°C° 0 mm 2 mps 656 mmHg 29%
    15:00 +34°C° 0 mm 2 mps 655 mmHg 32%
    16:00 +32°C° 0 mm 2 mps 655 mmHg 34%
    17:00 +31°C° 0 mm 2 mps 654 mmHg 37%
    18:00 +29°C° 0 mm 2 mps 654 mmHg 41%
    19:00 +27°C° 0 mm 2 mps 654 mmHg 46%
    20:00 +25°C° 0 mm 2 mps 654 mmHg 51%
    21:00 +24°C° 0 mm 2 mps 654 mmHg 53%
    22:00 +24°C° 0 mm 2 mps 654 mmHg 56%
    23:00 +23°C° 0 mm 2 mps 655 mmHg 58%

    20 December, Friday

    Time Temperature Precipitation Wind Pressure Humidity
    00:00 +23°C° 0 mm 2 mps 654 mmHg 59%
    01:00 +21°C° 0 mm 2 mps 654 mmHg 60%
    02:00 +22°C° 0 mm 1 mps 654 mmHg 61%
    03:00 +21°C° 0 mm 1 mps 654 mmHg 63%
    04:00 +21°C° 0 mm 1 mps 654 mmHg 65%
    05:00 +20°C° 0 mm 1 mps 654 mmHg 66%
    06:00 +22°C° 0 mm 1 mps 655 mmHg 64%
    07:00 +24°C° 0 mm 1 mps 656 mmHg 61%
    08:00 +26°C° 0 mm 1 mps 657 mmHg 59%
    09:00 +28°C° 0 mm 1 mps 658 mmHg 51%
    10:00 +31°C° 0 mm 1 mps 658 mmHg 44%
    11:00 +33°C° 0 mm 1 mps 659 mmHg 36%
    12:00 +33°C° 0 mm 1 mps 658 mmHg 36%
    13:00 +33°C° 0 mm 1 mps 657 mmHg 35%
    14:00 +33°C° 0 mm 1 mps 656 mmHg 35%
    15:00 +32°C° 0 mm 1 mps 656 mmHg 37%
    16:00 +31°C° 0 mm 1 mps 655 mmHg 40%
    17:00 +31°C° 0 mm 1 mps 655 mmHg 42%
    18:00 +29°C° 0 mm 1 mps 655 mmHg 45%
    19:00 +27°C° 0 mm 1 mps 654 mmHg 48%
    20:00 +25°C° 0 mm 1 mps 654 mmHg 51%
    21:00 +25°C° 0 mm 1 mps 654 mmHg 53%
    22:00 +24°C° 0 mm 2 mps 655 mmHg 54%
    23:00 +23°C° 0 mm 2 mps 655 mmHg 55%

    21 December, Saturday

    Time Temperature Precipitation Wind Pressure Humidity
    00:00 +23°C° 0 mm 1 mps 655 mmHg 55%
    01:00 +23°C° 0 mm 1 mps 655 mmHg 55%
    02:00 +22°C° 0 mm 1 mps 654 mmHg 55%
    03:00 +22°C° 0 mm 1 mps 655 mmHg 56%
    04:00 +21°C° 0 mm 1 mps 655 mmHg 57%
    05:00 +20°C° 0 mm 2 mps 655 mmHg 58%
    06:00 +21°C° 0 mm 2 mps 656 mmHg 59%
    07:00 +24°C° 0 mm 3 mps 657 mmHg 60%
    08:00 +25°C° 0 mm 4 mps 657 mmHg 61%
    09:00 +27°C° 0 mm 4 mps 657 mmHg 54%
    10:00 +29°C° 0 mm 3 mps 658 mmHg 48%
    11:00 +31°C° 0 mm 3 mps 658 mmHg 41%
    12:00 +31°C° 0 mm 3 mps 657 mmHg 39%
    13:00 +33°C° 0 mm 3 mps 657 mmHg 37%
    14:00 +33°C° 0 mm 3 mps 656 mmHg 35%
    15:00 +33°C° 0 mm 3 mps 656 mmHg 37%
    16:00 +31°C° 0 mm 3 mps 655 mmHg 39%
    17:00 +30°C° 0 mm 3 mps 655 mmHg 41%
    18:00 +29°C° 0 mm 3 mps 655 mmHg 48%
    19:00 +27°C° 0 mm 2 mps 655 mmHg 56%
    20:00 +25°C° 0 mm 2 mps 655 mmHg 63%
    21:00 +24°C° 0 mm 2 mps 655 mmHg 63%
    22:00 +24°C° 0 mm 2 mps 655 mmHg 64%
    23:00 +24°C° 0 mm 2 mps 656 mmHg 65%
    Show more